Location: Hartford
(41.7640°N, 72.6860°W)
Time: 03:54:25
(UTC-04:00)

ISS - All Passes

Search period start: 29 May 2015 00:00
Search period end: 08 June 2015 00:00
Orbit: 399 x 404 km, 51.6° (Epoch: 29 May)

Date Brightness Start Highest point End Pass type
(mag) Time Alt. Az. Time Alt. Az. Time Alt. Az.
29 May - 00:39:34 10° WNW 00:42:16 23° NNW 00:44:59 10° NE visible
29 May - 02:17:38 10° NW 02:19:32 14° N 02:21:27 10° NE visible
29 May - 03:54:05 10° NW 03:56:48 24° NNE 03:59:33 10° ENE visible
29 May - 05:30:13 10° WNW 05:33:27 63° SW 05:36:41 10° SE daylight
29 May - 22:09:33 10° SSW 22:12:28 32° SE 22:15:25 10° ENE night (unlit)
29 May - 23:45:51 10° W 23:48:51 34° NNW 23:51:53 10° NE visible
30 May - 01:23:59 10° NW 01:26:00 15° N 01:28:00 10° NNE visible
30 May - 03:00:57 10° NNW 03:03:20 18° NNE 03:05:43 10° ENE visible
30 May - 04:36:57 10° NW 04:40:13 68° NE 04:43:28 10° ESE visible
30 May - 06:14:27 10° W 06:16:18 14° SW 06:18:04 10° SSW daylight
30 May - 21:17:14 10° S 21:19:22 17° SE 21:21:34 10° E visible
30 May - 22:52:19 10° WSW 22:55:31 57° NNW 22:58:44 10° NE visible
31 May - 00:30:10 10° WNW 00:32:27 17° NNW 00:34:44 10° NNE visible
31 May - 02:07:44 10° NNW 02:09:48 16° N 02:11:53 10° NE visible
31 May - 03:43:47 10° NW 03:46:53 38° NNE 03:49:58 10° E visible
31 May - 05:20:23 10° WNW 05:23:12 27° SW 05:26:00 10° SSE daylight
31 May - 21:59:00 10° SW 22:02:13 76° SE 22:05:29 10° ENE visible
31 May - 23:36:19 10° WNW 23:38:57 22° NNW 23:41:34 10° NE visible
01 Jun - 01:14:19 10° NW 01:16:14 14° N 01:18:09 10° NE visible
01 Jun - 02:50:39 10° NW 02:53:28 26° NNE 02:56:17 10° E visible
01 Jun - 04:26:51 10° WNW 04:30:03 53° SW 04:33:13 10° SE visible
01 Jun - 21:06:01 10° SSW 21:09:01 37° SE 21:12:04 10° ENE visible
01 Jun - 22:42:32 10° W 22:45:28 30° NNW 22:48:26 10° NE visible
02 Jun - 00:20:41 10° NW 00:22:39 15° N 00:24:36 10° NNE visible
02 Jun - 01:57:31 10° NNW 01:59:58 19° NNE 02:02:27 10° ENE visible
02 Jun - 03:33:31 10° NW 03:36:48 79° NNE 03:40:03 10° ESE visible
02 Jun - 05:11:27 10° WSW 05:12:50 12° SW 05:14:05 10° SSW daylight
02 Jun - 20:13:30 10° S 20:15:53 19° SE 20:18:20 10° E daylight
02 Jun - 21:48:55 10° WSW 21:52:05 49° NNW 21:55:15 10° NE visible
02 Jun - 23:26:52 10° NW 23:29:04 17° N 23:31:16 10° NNE visible
03 Jun - 01:04:17 10° NNW 01:06:25 16° N 01:08:34 10° NE visible
03 Jun - 02:40:19 10° NW 02:43:27 43° NNE 02:46:35 10° ESE visible
03 Jun - 04:17:03 10° W 04:19:43 23° SW 04:22:20 10° S visible
03 Jun - 20:55:31 10° SW 20:58:45 89° SSE 21:02:01 10° NE visible
03 Jun - 22:32:59 10° WNW 22:35:32 20° NNW 22:38:03 10° NE visible
04 Jun - 00:10:54 10° NNW 00:12:50 15° N 00:14:45 10° NE visible
04 Jun - 01:47:09 10° NW 01:50:01 28° NNE 01:52:54 10° E visible
04 Jun - 03:23:24 10° WNW 03:26:32 44° SW 03:29:39 10° SSE visible
04 Jun - 20:02:24 10° SSW 20:05:29 44° SE 20:08:37 10° ENE daylight
04 Jun - 21:39:09 10° W 21:42:00 28° NNW 21:44:53 10° NE visible
04 Jun - 23:17:17 10° NW 23:19:12 15° N 23:21:08 10° NNE visible
05 Jun - 00:53:58 10° NW 00:56:31 21° NNE 00:59:04 10° ENE visible
05 Jun - 02:30:01 10° NW 02:33:17 89° SW 02:36:32 10° SE visible
05 Jun - 04:09:00 10° SW 04:09:15 10° SW 04:09:23 10° SW night (unlit)
05 Jun - 19:09:43 10° S 19:12:18 23° SE 19:14:57 10° E daylight
05 Jun - 20:45:26 10° WSW 20:48:33 43° NNW 20:51:41 10° NE daylight
05 Jun - 22:23:28 10° NW 22:25:36 16° N 22:27:43 10° NNE visible
06 Jun - 00:00:45 10° NNW 00:02:56 17° N 00:05:09 10° NE visible
06 Jun - 01:36:45 10° NW 01:39:56 49° NNE 01:43:06 10° ESE visible
06 Jun - 03:13:40 10° W 03:16:08 20° SW 03:18:32 10° S night (unlit)
06 Jun - 18:17:57 10° SSE 18:19:09 12° SE 18:20:28 10° ESE daylight
06 Jun - 19:51:57 10° WSW 19:55:11 79° NNW 19:58:26 10° NE daylight
06 Jun - 21:29:33 10° WNW 21:32:00 19° NNW 21:34:27 10° NNE visible
06 Jun - 23:07:22 10° NNW 23:09:19 15° N 23:11:16 10° NE visible
07 Jun - 00:43:32 10° NW 00:46:29 31° NNE 00:49:26 10° E visible
07 Jun - 02:19:53 10° WNW 02:22:56 37° SW 02:25:58 10° SSE visible
07 Jun - 18:58:43 10° SW 19:01:52 52° SE 19:05:03 10° ENE daylight
07 Jun - 20:35:39 10° W 20:38:27 26° NNW 20:41:14 10° NE daylight
07 Jun - 22:13:47 10° NW 22:15:40 14° N 22:17:34 10° NE visible
07 Jun - 23:50:20 10° NW 23:52:57 22° NNE 23:55:34 10° ENE visible
